Location: Newark
(48.8656°N, 2.3211°E)
Time: 14:46:57
(UTC+00:00)

OTV 5 (USA 277) - Pass Details

Date: 18 October 2019
Orbit: 310 x 324 km, 54.5° (Epoch: 17 October)

Event Time Altitude Azimuth Distance (km) Brightness Sun altitude
Exits shadow 04:35:56 77° 257° (WSW) 337 ? -17.0°
Maximum altitude 04:36:04 81° 211° (SSW) 333 ? -17.0°
Drops below altitude 10° 04:38:48 10° 124° (SE) 1,233 ? -16.5°
Sets 04:40:45 0° 123° (ESE) 2,060 ? -16.2°
